{"data":{"norad_id":65501,"intl_designator":"2025-198K","name":"STARLINK-35140","alt_names":[],"object_type":"PAYLOAD","status":"ACTIVE","operator":null,"country":"US","launch_date":"2025-09-05","launch_site_code":"AFETR","launch_vehicle":null,"mission":null,"orbit_class":"UNKNOWN","rcs_meters":null,"size_class":null,"mass_kg":null,"dimensions":null,"purposes":["comms"],"wikipedia_slug":null,"has_3d_model":false,"image_url":null,"decayed_at":null,"tle_current":{"epoch":"2026-09-20T01:23:40.347168Z","epoch_age_seconds":150117,"freshness":"FRESH","line1":"1 65501U 25198K   26263.05810587  .00003818  00000+0  12411-3 0  9996","line2":"2 65501  53.1588  83.5751 0001442  70.0017 290.1141 15.34393744 58446","mean_motion":15.34393744,"eccentricity":0.0001442,"inclination_deg":53.1588,"raan_deg":83.5751,"arg_perigee_deg":70.0017,"mean_anomaly_deg":290.1141,"bstar":0.00012411,"rev_number":5844,"period_min":93.848140715569,"perigee_km":461.73538257675,"apogee_km":463.7082862646,"semimajor_km":6840.8588344207,"source":"CELESTRAK","updated_at":"2026-09-21T09:00:35.642774Z"}}}